Meath Environmental Platform

Observations for Trim Market St

Time AQI Temp °C Hum % Pres Pa CO μg/m³ H₂S μg/m³ NO μg/m³ NO₂ μg/m³ O₃ μg/m³ SO₂ μg/m³ PM1 μg/m³ PM2.5 μg/m³ PM10 μg/m³
Tuesday 14 July 2026
03:52 1 16.7 74 49,375 0.12 0 0 7.6 18.17 0 4.28 5.29 9.35
03:47 1 16.7 73 49,934 0.11 0 0 6.52 17.84 0 2.14 3.86 6.32
03:46 1 16.7 73 50,167 0.13 0 0 4.92 19.97 0 2.14 3.86 6.32
03:45 1 16.7 73 50,240 0.11 0 0 4.63 20.49 0 2.14 3.38 5.71
03:44 1 16.7 73 50,309 0.12 0 0 5.53 20.36 0 1.43 2.9 6.31
03:43 1 16.7 73 50,388 0.11 0 0 4.73 21.43 0 2.14 3.38 6.92
03:42 1 16.7 73 50,468 0.12 0 0 5.24 20.56 0 2.85 3.87 6.92
03:41 1 16.7 73 50,613 0.12 0 0 4.54 19.57 0 2.14 3.39 5.71
03:40 1 16.7 73 50,739 0.12 0 0 6.74 20.81 0 2.85 4.35 7.53
03:39 1 16.7 73 50,853 0.12 0 0.01 4.74 19.62 0 3.56 5.8 9.36
03:38 1 16.8 73 50,927 0.11 0 0 5.33 21.75 0 1.43 3.39 6.92
03:37 1 16.7 73 51,041 0.12 0 0 4.95 20.76 0 1.43 3.88 6.92
03:36 1 16.7 73 51,150 0.1 0 1.04 5.16 18.47 0 2.14 2.92 5.7
03:35 1 16.7 73 51,276 0.13 0 0 6.16 21.85 0 2.14 3.88 6.31
03:34 1 16.8 73 51,384 0.11 0 0 3.65 24.9 0 2.85 3.4 5.7
03:31 1 16.8 73 51,473 0.1 0 0 5.16 20.45 0 1.43 3.41 6.31
03:30 1 16.8 73 51,607 0.11 0 0 4.96 22.43 0 1.43 2.44 4.48
03:26 1 16.8 72 52,097 0.11 0 0 5.89 21.38 0 2.14 3.91 6.31
03:21 1 16.8 72 52,714 0.1 0 0 4.72 21.08 0 2.14 3.43 5.69
03:16 1 16.8 72 53,120 0.11 0 0 4.54 21.91 0 2.85 3.44 6.3